Weather History for KAKO - November, 2013

Change the Weather History Date:

Saturday, November 23, 2013

  Actual Average Record
Temperature  
Mean Temperature 27 °F 34 °F  
Max Temperature 33 °F 46 °F 66 °F (1988)
Min Temperature 20 °F 22 °F 0 °F (1941)
Degree Days  
Heating Degree Days 38    
Month to date heating degree days 578  
Cooling Degree Days 0    
Month to date cooling degree days 0  
Moisture  
Dew Point 13 °F    
Average Humidity 57    
Maximum Humidity 74    
Minimum Humidity 39    
Precipitation  
Precipitation 0.00 in 0.02 in 0.22 in (1992)
Month to date precipitation 0.16 0.46  
Year to date precipitation 16.96 16.22  
Sea Level Pressure  
Sea Level Pressure 30.66 in    
Wind  
Wind Speed 8 mph (SSE)    
Max Wind Speed 17 mph    
Max Gust Speed 21 mph    
Visibility 10 miles    
Events      
T = Trace of Precipitation, MM = Missing Value Source: NWS Daily Summary

Daily Weather History Graph

Daily Weather History Graph

Search for Another Location

Airport or City:

Trip Planner

Search our weather history database for the weather conditions in past years. The results will help you decide how hot, cold, wet, or windy it might be!

Date:

Astronomy

Nov. 23, 2013 Rise Set
Actual Time 6:47 AM MST 4:30 PM MST
Civil Twilight 6:18 AM MST 5:00 PM MST
Nautical Twilight 5:44 AM MST 5:33 PM MST
Astronomical Twilight 5:12 AM MST 6:05 PM MST
Moon 10:01 PM MST (11/23) 11:05 AM MST (11/23)
Length of Visible Light 10h 42m
Length of Day
9h 42m
Waning Gibbous, 69% of the Moon is Illuminated
Nov 23
Waning Gibbous
Nov 25
Last Quarter
Dec 2
New
Dec 9
First Quarter
Dec 17
Full

Hourly Weather History & Observations

Time (MST) Temp. Windchill Dew Point Humidity Pressure Visibility Wind Dir Wind Speed Gust Speed Precip Events Conditions
12:53 AM 21.0 °F 11.4 °F 12.0 °F 68% 30.71 in 10.0 mi NW 8.1 mph - N/A   Overcast
1:53 AM 21.0 °F 12.4 °F 10.9 °F 65% 30.70 in 10.0 mi NW 6.9 mph - N/A   Overcast
2:53 AM 21.0 °F 16.2 °F 10.9 °F 65% 30.71 in 10.0 mi West 3.5 mph - N/A   Overcast
3:53 AM 21.9 °F 12.5 °F 12.0 °F 66% 30.71 in 10.0 mi North 8.1 mph - N/A   Overcast
4:53 AM 21.0 °F 14.6 °F 12.0 °F 68% 30.74 in 10.0 mi NNW 4.6 mph - N/A   Overcast
5:53 AM 19.9 °F 14.9 °F 12.9 °F 74% 30.76 in 10.0 mi WSW 3.5 mph - N/A   Mostly Cloudy
6:53 AM 19.9 °F 11.1 °F 9.0 °F 62% 30.78 in 10.0 mi SE 6.9 mph - N/A   Clear
7:53 AM 21.0 °F 11.4 °F 9.0 °F 60% 30.77 in 10.0 mi South 8.1 mph - N/A   Scattered Clouds
8:53 AM 21.9 °F 13.4 °F 10.0 °F 60% 30.76 in 10.0 mi SSE 6.9 mph - N/A   Overcast
9:53 AM 24.1 °F 17.0 °F 12.0 °F 60% 30.75 in 10.0 mi SSE 5.8 mph - N/A   Mostly Cloudy
10:53 AM 27.0 °F 18.7 °F 12.9 °F 56% 30.71 in 10.0 mi South 8.1 mph - N/A   Mostly Cloudy
11:53 AM 28.9 °F 21.9 °F 12.9 °F 51% 30.70 in 10.0 mi SSE 6.9 mph - N/A   Clear
12:53 PM 32.0 °F 23.6 °F 10.9 °F 42% 30.66 in 10.0 mi South 10.4 mph - N/A   Clear
1:53 PM 32.0 °F 24.8 °F 10.0 °F 40% 30.63 in 10.0 mi SE 8.1 mph - N/A   Clear
2:53 PM 32.0 °F 24.2 °F 12.0 °F 44% 30.62 in 10.0 mi SE 9.2 mph - N/A   Clear
3:53 PM 30.9 °F 22.8 °F 16.0 °F 54% 30.60 in 10.0 mi SE 9.2 mph - N/A   Scattered Clouds
4:53 PM 28.0 °F 18.1 °F 16.0 °F 61% 30.60 in 10.0 mi SE 11.5 mph - N/A   Clear
5:53 PM 25.0 °F 13.1 °F 17.1 °F 72% 30.62 in 10.0 mi SSE 13.8 mph - N/A   Clear
6:53 PM 25.0 °F 13.6 °F 17.1 °F 72% 30.60 in 10.0 mi SSE 12.7 mph - N/A   Clear
7:53 PM 26.1 °F 14.0 °F 16.0 °F 66% 30.58 in 10.0 mi South 15.0 mph - N/A   Clear
8:53 PM 25.0 °F 13.6 °F 16.0 °F 69% 30.56 in 10.0 mi South 12.7 mph - N/A   Clear
9:53 PM 23.0 °F 10.6 °F 14.0 °F 68% 30.54 in 10.0 mi SSE 13.8 mph - N/A   Clear
10:53 PM 24.1 °F 12.5 °F 17.1 °F 75% 30.52 in 10.0 mi SSE 12.7 mph - N/A   Overcast
11:53 PM 27.0 °F 15.6 °F 16.0 °F 63% 30.48 in 10.0 mi South 13.8 mph - N/A   Overcast